CW1852 Weather Reports


Display with metric or nautical units.
time (UTC)temp
F
wind
direction
speed
MPH
gust
MPH
rain 1hr
in
rain 24hr
in
rain mn
in
humidity
%
barometer
mb
20220119103200 9 305 0.0 1.0 0.00 0.00 0.00 65 1020.3
20220119102200 9 304 1.0 3.0 0.00 0.00 0.00 65 1020.2
20220119101200 9 304 0.0 4.0 0.00 0.00 0.00 65 1020.4
20220119100200 9 304 1.0 5.0 0.00 0.00 0.00 64 1020.3
20220119095200 9 304 0.0 6.0 0.00 0.00 0.00 64 1020.4
20220119094200 9 303 1.0 6.0 0.00 0.00 0.00 65 1020.5
20220119093200 9 303 0.0 4.0 0.00 0.00 0.00 65 1020.4
20220119092200 9 302 0.0 4.0 0.00 0.00 0.00 65 1020.3
20220119091202 9 302 2.0 4.0 0.00 0.00 0.00 65 1020.4
20220119090200 9 301 0.0 3.0 0.00 0.00 0.00 65 1020.4
20220119085200 9 302 0.0 0.0 0.00 0.00 0.00 66 1020.3
20220119084201 9 302 0.0 5.0 0.00 0.00 0.00 65 1020.2
20220119083200 9 304 2.0 5.0 0.00 0.00 0.00 65 1020.5
20220119082201 9 293 0.0 2.0 0.00 0.00 0.00 65 1020.1
20220119081201 9 293 2.0 7.0 0.00 0.00 0.00 65 1019.9
20220119080200 9 298 1.0 10.0 0.00 0.00 0.00 64 1020.0
20220119075200 9 313 4.0 8.0 0.00 0.00 0.00 63 1020.0
20220119074201 9 289 2.0 8.0 0.00 0.00 0.00 62 1019.9
20220119073200 9 308 3.0 9.0 0.00 0.00 0.00 62 1019.4
20220119072201 9 289 3.0 6.0 0.00 0.00 0.00 61 1019.3
20220119071200 9 266 3.0 8.0 0.00 0.00 0.00 61 1019.3
20220119070200 9 245 3.0 9.0 0.00 0.00 0.00 60 1019.2
20220119065201 9 274 2.0 8.0 0.00 0.00 0.00 60 1019.0
20220119064200 9 282 4.0 10.0 0.00 0.00 0.00 60 1018.7
20220119063200 9 316 1.0 7.0 0.00 0.00 0.00 60 1018.6
20220119062200 9 243 1.0 9.0 0.00 0.00 0.00 60 1018.6
20220119061200 9 283 3.0 9.0 0.00 0.00 0.00 60 1018.6
20220119060201 9 259 4.0 9.0 0.00 0.00 0.00 60 1018.3
20220119055200 9 252 4.0 9.0 0.00 0.00 0.00 61 1018.4
20220119054201 9 282 3.0 6.0 0.00 0.00 0.00 60 1018.1
20220119053200 9 274 2.0 10.0 0.00 0.00 0.00 60 1018.0
20220119052201 9 251 4.0 9.0 0.00 0.00 0.00 59 1017.9
20220119051201 9 311 2.0 11.0 0.00 0.00 0.00 59 1018.0
20220119050200 9 253 4.0 10.0 0.00 0.00 0.00 58 1018.1
20220119045200 9 276 4.0 12.0 0.00 0.00 0.00 58 1017.6
20220119044201 9 298 2.0 15.0 0.00 0.00 0.00 58 1017.0
20220119043201 9 319 5.0 13.0 0.00 0.00 0.00 58 1017.3
20220119042200 9 291 7.0 17.0 0.00 0.00 0.00 58 1016.9
20220119041200 9 318 4.0 14.0 0.00 0.00 0.00 57 1016.8
20220119040201 9 296 5.0 17.0 0.00 0.00 0.00 57 1016.5
20220119035200 9 300 2.0 11.0 0.00 0.00 0.00 57 1016.5
20220119034200 10 311 3.0 18.0 0.00 0.00 0.00 56 1016.0
20220119033201 10 314 10.0 18.0 0.00 0.00 0.00 55 1015.8
20220119032201 10 298 6.0 19.0 0.00 0.00 0.00 56 1015.3
20220119031201 10 303 7.0 22.0 0.00 0.00 0.00 56 1015.0
20220119030200 10 299 12.0 18.0 0.00 0.00 0.00 57 1014.5
20220119025201 10 305 7.0 17.0 0.00 0.00 0.00 57 1014.5
20220119024201 10 300 4.0 18.0 0.00 0.00 0.00 57 1014.6
20220119023201 10 314 5.0 16.0 0.00 0.00 0.00 56 1014.5
20220119022200 10 307 8.0 25.0 0.00 0.00 0.00 55 1014.4
20220119021200 11 276 7.0 20.0 0.00 0.00 0.00 54 1014.4
20220119020201 11 300 7.0 17.0 0.00 0.00 0.00 55 1014.0
20220119015200 11 302 9.0 23.0 0.00 0.00 0.00 53 1013.6
20220119014200 11 294 8.0 18.0 0.00 0.00 0.00 55 1013.5
20220119013200 12 285 3.0 22.0 0.00 0.00 0.00 55 1013.7
20220119012200 12 261 6.0 18.0 0.00 0.00 0.00 54 1013.6
20220119011201 12 306 9.0 19.0 0.00 0.00 0.00 54 1013.3
20220119010201 12 303 9.0 24.0 0.00 0.00 0.00 54 1013.3
20220119005200 13 311 11.0 22.0 0.00 0.00 0.00 54 1013.1
20220119004201 13 298 6.0 21.0 0.00 0.00 0.00 54 1012.6
20220119003201 13 314 10.0 25.0 0.00 0.00 0.00 52 1012.3
20220119002201 14 315 10.0 19.0 0.00 0.00 0.00 54 1012.2
20220119001201 14 314 7.0 16.0 0.00 0.00 0.00 55 1012.0
20220119000204 14 316 6.0 20.0 0.00 0.00 0.00 54 1011.7
20220118235201 14 326 8.0 19.0 0.00 0.00 0.00 55 1011.3
20220118234201 15 300 6.0 16.0 0.00 0.00 0.00 54 1011.0
20220118233200 15 299 7.0 24.0 0.00 0.00 0.00 54 1010.6
20220118232201 15 289 10.0 24.0 0.00 0.00 0.00 53 1009.8
20220118231200 16 303 9.0 25.0 0.00 0.00 0.00 54 1009.6
20220118230201 16 303 8.0 22.0 0.00 0.00 0.00 53 1009.4
20220118225201 17 298 9.0 25.0 0.00 0.00 0.00 52 1009.2
20220118224200 17 305 9.0 25.0 0.00 0.00 0.00 51 1008.8
20220118223201 17 285 10.0 29.0 0.00 0.00 0.00 50 1008.5
20220118222202 18 280 13.0 25.0 0.00 0.00 0.00 49 1008.2
20220118221201 18 304 11.0 29.0 0.00 0.00 0.00 48 1007.6
20220118220201 19 304 12.0 29.0 0.00 0.00 0.00 47 1007.2
20220118215200 20 301 10.0 37.0 0.00 0.00 0.00 48 1006.6
20220118214201 20 307 10.0 31.0 0.00 0.00 0.00 47 1006.2
20220118213201 21 290 13.0 32.0 0.00 0.00 0.00 47 1006.1
20220118212200 22 324 5.0 22.0 0.00 0.00 0.00 49 1005.7
20220118211201 22 303 6.0 26.0 0.00 0.00 0.00 52 1005.6
20220118210201 23 296 8.0 21.0 0.00 0.00 0.00 51 1005.1
20220118205200 23 294 6.0 18.0 0.00 0.00 0.00 52 1004.8
20220118204201 23 277 4.0 21.0 0.00 0.00 0.00 51 1004.5
20220118203201 23 285 9.0 22.0 0.00 0.00 0.00 51 1004.1
20220118202201 23 314 13.0 28.0 0.00 0.00 0.00 51 1003.8
20220118201201 23 290 11.0 34.0 0.00 0.00 0.00 51 1003.7
20220118200201 24 304 14.0 22.0 0.00 0.00 0.00 50 1003.2
20220118195201 24 323 10.0 26.0 0.00 0.00 0.00 51 1003.0
20220118194200 24 289 12.0 23.0 0.00 0.00 0.00 51 1002.9
20220118193201 24 298 13.0 24.0 0.00 0.00 0.00 52 1002.3
20220118192201 25 309 10.0 23.0 0.00 0.00 0.00 53 1002.0
20220118191200 25 277 11.0 27.0 0.00 0.00 0.00 53 1001.7
20220118190202 25 279 8.0 21.0 0.00 0.00 0.00 53 1001.6
20220118185201 25 286 7.0 25.0 0.00 0.00 0.00 54 1001.3
20220118184202 25 298 9.0 27.0 0.00 0.00 0.00 54 1001.2
20220118183201 26 310 11.0 26.0 0.00 0.01 0.00 52 1000.8
20220118182200 26 315 9.0 21.0 0.00 0.03 0.00 54 1000.6
20220118181201 26 266 10.0 23.0 0.00 0.05 0.00 52 1000.5
20220118180201 26 300 12.0 27.0 0.00 0.05 0.00 53 1000.3
20220118175202 27 285 9.0 21.0 0.00 0.06 0.00 52 999.9
20220118174201 27 294 10.0 19.0 0.00 0.07 0.00 52 999.8
20220118173202 26 339 6.0 21.0 0.00 0.08 0.00 52 999.7
20220118172200 27 327 10.0 22.0 0.00 0.11 0.00 52 999.4
20220118171201 27 316 12.0 27.0 0.00 0.17 0.00 52 999.2
20220118170201 28 296 8.0 19.0 0.00 0.20 0.00 55 999.1
20220118165200 27 311 11.0 29.0 0.00 0.23 0.00 53 998.7
20220118164201 27 310 7.0 23.0 0.00 0.24 0.00 56 998.6
20220118163201 27 286 4.0 19.0 0.00 0.28 0.00 57 998.4
20220118162200 27 330 9.0 21.0 0.00 0.29 0.00 56 998.4
20220118161201 26 340 9.0 26.0 0.00 0.31 0.00 54 998.2
20220118160200 26 307 11.0 24.0 0.00 0.31 0.00 55 998.1
20220118155201 27 315 4.0 20.0 0.00 0.33 0.00 58 998.0
20220118154201 26 339 8.0 18.0 0.00 0.36 0.00 58 997.9
20220118153200 26 334 4.0 18.0 0.00 0.39 0.00 61 997.8
20220118152201 25 291 7.0 20.0 0.00 0.41 0.00 63 997.8
20220118151201 25 277 7.0 15.0 0.00 0.45 0.00 63 997.5
20220118150200 25 291 6.0 18.0 0.00 0.48 0.00 64 997.5
20220118145201 25 318 8.0 18.0 0.00 0.49 0.00 65 997.3
20220118144201 25 287 4.0 15.0 0.00 0.50 0.00 65 997.0
20220118143201 25 317 7.0 13.0 0.00 0.52 0.00 64 996.8
20220118142201 25 323 5.0 18.0 0.00 0.55 0.00 64 996.7
20220118141200 25 340 5.0 15.0 0.00 0.58 0.00 65 996.3
20220118140201 25 322 4.0 18.0 0.00 0.61 0.00 65 995.9
20220118135201 25 310 7.0 16.0 0.00 0.65 0.00 66 995.6
20220118134201 25 307 8.0 21.0 0.00 0.68 0.00 65 995.4
20220118133201 25 310 8.0 18.0 0.00 0.71 0.00 66 995.3
20220118132201 24 321 8.0 16.0 0.00 0.73 0.00 66 994.9
20220118131201 24 316 4.0 16.0 0.00 0.75 0.00 66 994.7
20220118130202 24 333 7.0 23.0 0.00 0.78 0.00 65 994.5
20220118125201 25 316 8.0 20.0 0.00 0.79 0.00 65 994.0
20220118124201 25 301 9.0 26.0 0.00 0.80 0.00 65 993.8
20220118123201 25 323 7.0 22.0 0.00 0.80 0.00 64 993.5
20220118122202 26 322 11.0 27.0 0.00 0.80 0.00 64 993.3
20220118121201 27 307 8.0 22.0 0.00 0.81 0.00 65 993.1
20220118120202 27 304 9.0 19.0 0.00 0.81 0.00 66 992.8
20220118115200 27 325 6.0 18.0 0.00 0.82 0.00 67 992.5
20220118114202 27 310 6.0 16.0 0.00 0.82 0.00 68 992.2
20220118113202 27 332 7.0 20.0 0.00 0.83 0.00 68 992.0
20220118112201 28 335 7.0 20.0 0.00 0.83 0.00 68 991.6
20220118111201 28 335 9.0 23.0 0.00 0.83 0.00 68 991.4
20220118110202 29 333 8.0 23.0 0.00 0.83 0.00 68 991.0
20220118105201 29 328 11.0 21.0 0.00 0.83 0.00 68 990.6
20220118104202 30 320 9.0 16.0 0.00 0.83 0.00 68 990.0